Location: Torrington
(42.0650°N, 104.1810°W)
Time: 12:46:01
(UTC-06:00)

Amateur Radio Satellites - All Passes

Search period start: 25 July 2017 12:16
Search period end: 26 July 2017 12:16
Location: Torrington, 42.0650°N, 104.1810°W

Satellite Date Start Highest point End Downlink Frequencies (MHz)
Time Altitude Azimuth
EO-88 25 Jul 12:16:26 12:17:29 11° 296° (WNW) 12:18:31 145.990 - 145.960
LO-87 25 Jul 12:17:22 12:20:59 73° 284° (WNW) 12:24:32 145.935 - 145.965
SPROUT 25 Jul 12:21:18 12:23:53 16° 92° (E) 12:26:27 437.525
ESTCUBE 1 25 Jul 12:23:36 12:28:08 67° 102° (ESE) 12:32:38 437.505/2401.250
BEESAT 3 25 Jul 12:24:08 12:27:42 32° 115° (ESE) 12:31:17 437.485
Oscar 19 25 Jul 12:24:21 12:27:58 20° 63° (ENE) 12:31:37 437.125/150
NO-84 25 Jul 12:28:46 12:31:31 27° 330° (NNW) 12:34:28 435.350 FM
DUCHIFAT 1 25 Jul 12:51:57 12:55:41 30° 264° (W) 12:59:26 145.980
Gurwin Techsat 1B 25 Jul 12:52:37 12:56:47 24° 64° (ENE) 13:00:59 435.225
POLYITAN 1 25 Jul 12:55:27 12:58:51 23° 266° (W) 13:02:14 437.675
PCSat 25 Jul 13:02:38 13:06:40 21° 44° (NE) 13:10:41 145.827
BEESAT 2 25 Jul 13:04:52 13:08:20 29° 114° (ESE) 13:11:51 435.950
VELOX 1 25 Jul 13:07:51 13:12:06 42° 99° (E) 13:16:20 145.980
QB50P2 25 Jul 13:09:35 13:12:05 15° 268° (W) 13:14:36 145.880/145.840
DX 1 25 Jul 13:13:26 13:15:55 15° 92° (E) 13:18:25 434.975-435.025
50 SAT 25 Jul 13:17:27 13:20:02 20° 95° (E) 13:22:35 437.505
BUGSAT 1 25 Jul 13:18:38 13:22:46 52° 260° (W) 13:26:55 437.445
NANOSAT C BR1 25 Jul 13:21:38 13:23:48 14° 269° (W) 13:25:57 145.865
EO-79 25 Jul 13:22:19 13:24:05 12° 270° (W) 13:25:51 145.935-145.965
AO-85 25 Jul 13:27:27 13:31:20 52° 306° (NW) 13:35:11 145.980
UKube-1 25 Jul 13:54:16 13:57:58 27° 96° (E) 14:01:37 .
SPROUT 25 Jul 13:55:55 14:00:01 45° 288° (WNW) 14:04:03 437.525
BEESAT 3 25 Jul 14:01:53 14:05:17 26° 313° (NW) 14:08:43 437.485
Oscar 19 25 Jul 14:01:54 14:06:53 54° 260° (W) 14:11:55 437.125/150
ESTCUBE 1 25 Jul 14:02:12 14:04:22 13° 298° (WNW) 14:06:32 437.505/2401.250
NO-84 25 Jul 14:08:56 14:09:59 11° 352° (N) 14:11:04 435.350 FM
ITAMSAT 1 25 Jul 14:16:56 14:20:24 18° 61° (ENE) 14:23:52 435.822/435.867
RS-15 25 Jul 14:19:09 14:27:35 23° 99° (E) 14:36:06 29.354- 29.394
AO-7 25 Jul 14:28:43 14:36:22 42° 60° (ENE) 14:44:04 .
Gurwin Techsat 1B 25 Jul 14:31:20 14:36:25 46° 261° (W) 14:41:33 435.225
BEESAT 2 25 Jul 14:42:34 14:46:02 28° 312° (NW) 14:49:34 435.950
VELOX 1 25 Jul 14:45:03 14:48:14 19° 295° (WNW) 14:51:24 145.980
SO-50 25 Jul 14:45:10 14:49:27 40° 50° (NE) 14:53:46 436.795
PCSat 25 Jul 14:45:12 14:50:37 72° 243° (WSW) 14:56:00 145.827
O/OREOS (USA 219) 25 Jul 14:45:29 14:49:05 24° 103° (ESE) 14:52:41 437.305
DX 1 25 Jul 14:48:07 14:52:24 51° 288° (WNW) 14:56:38 434.975-435.025
50 SAT 25 Jul 14:49:56 14:52:42 23° 291° (WNW) 14:55:27 437.505
MOZHAYETS 4 25 Jul 15:00:15 15:00:35 10° 88° (E) 15:00:54
UKube-1 25 Jul 15:30:13 15:33:55 28° 292° (WNW) 15:37:35 .
BEESAT 25 Jul 15:37:29 15:41:51 35° 98° (E) 15:46:11 436.000
NO-84 25 Jul 15:47:03 15:48:48 13° 14° (NNE) 15:50:35 435.350 FM
ITUPSAT 1 25 Jul 15:50:53 15:55:29 47° 100° (E) 16:00:04 437.325
ITAMSAT 1 25 Jul 15:54:09 15:59:20 63° 258° (WSW) 16:04:33 435.822/435.867
DOVE 4 25 Jul 16:19:52 16:22:55 16° 61° (ENE) 16:26:02 437.250
AO-7 25 Jul 16:21:03 16:29:00 47° 259° (W) 16:37:02 .
O/OREOS (USA 219) 25 Jul 16:24:15 16:28:18 33° 300° (WNW) 16:32:23 437.305
RS-15 25 Jul 16:26:01 16:38:14 84° 120° (ESE) 16:50:39 29.354- 29.394
SO-50 25 Jul 16:26:02 16:29:43 24° 247° (WSW) 16:33:24 436.795
MOZHAYETS 4 25 Jul 16:33:42 16:38:16 78° 285° (WNW) 16:42:49
HO-68 25 Jul 17:05:02 17:06:08 10° 46° (NE) 17:07:12 435.675
XW-2C 25 Jul 17:08:04 17:09:50 13° 65° (ENE) 17:11:37 145.795 - 145.815
CUBESAT XI-V 25 Jul 17:09:38 17:14:11 49° 99° (E) 17:18:43 437.345
KKS-1 25 Jul 17:11:18 17:15:04 26° 96° (E) 17:18:49 437.445
NUDT-PHONESAT 25 Jul 17:14:20 17:15:23 11° 64° (ENE) 17:16:26 437.300
BEESAT 25 Jul 17:15:34 17:19:26 25° 294° (WNW) 17:23:18 436.000
NO-84 25 Jul 17:23:35 17:27:07 36° 33° (NNE) 17:30:54 435.350 FM
KAITUO 1B 25 Jul 17:28:05 17:30:29 17° 67° (ENE) 17:32:52 145.475/437.950
ITUPSAT 1 25 Jul 17:29:34 17:32:58 20° 296° (WNW) 17:36:21 437.325
LilacSat-2 25 Jul 17:30:35 17:33:41 25° 70° (ENE) 17:36:48 437.200
STARS 25 Jul 17:39:42 17:43:08 22° 94° (E) 17:46:32 437.465
XW-2F 25 Jul 17:43:40 17:47:00 31° 71° (ENE) 17:50:19 145.980 - 146.000
CUTE-I 25 Jul 17:45:47 17:50:45 40° 68° (ENE) 17:55:45 437.470
DOVE 4 25 Jul 17:55:06 17:59:56 67° 259° (W) 18:05:06 437.250
YUBILEINY 25 Jul 18:01:14 18:08:36 31° 83° (E) 18:15:56 435.215
XW-2D 25 Jul 18:12:22 18:16:07 80° 77° (ENE) 18:19:53 145.860 - 145.880
XW-2B 25 Jul 18:22:27 18:26:12 79° 257° (WSW) 18:29:58 145.730 - 145.750
XW-2C 25 Jul 18:40:01 18:43:38 45° 261° (W) 18:47:15 145.795 - 145.815
RS-15 25 Jul 18:41:07 18:52:17 38° 326° (NNW) 19:03:30 29.354- 29.394
NUDT-PHONESAT 25 Jul 18:45:12 18:48:48 53° 260° (W) 18:52:25 437.300
HO-68 25 Jul 18:45:20 18:52:13 52° 67° (ENE) 18:59:07 435.675
KKS-1 25 Jul 18:47:42 18:51:35 30° 292° (WNW) 18:55:28 437.445
CUBESAT XI-V 25 Jul 18:47:59 18:51:10 18° 296° (WNW) 18:54:22 437.345
CUBEBUG 2 25 Jul 19:00:37 19:04:30 26° 68° (ENE) 19:08:18 437.445
KAITUO 1B 25 Jul 19:00:52 19:04:13 32° 263° (W) 19:07:35 145.475/437.950
NO-84 25 Jul 19:01:01 19:04:37 34° 228° (SW) 19:08:24 435.350 FM
LilacSat-2 25 Jul 19:04:56 19:07:55 22° 265° (W) 19:10:54 437.200
CUTE 1.7 + AOD 2 25 Jul 19:13:55 19:18:03 63° 75° (ENE) 19:22:13 437.475
STARS 25 Jul 19:15:32 19:19:32 34° 291° (WNW) 19:23:30 437.465
AO-73 25 Jul 19:16:15 19:17:19 11° 62° (ENE) 19:18:23 145.935
XW-2F 25 Jul 19:18:41 19:21:11 17° 267° (W) 19:23:42 145.980 - 146.000
SEEDS 25 Jul 19:24:57 19:28:59 52° 74° (ENE) 19:33:02 437.485
CUTE-I 25 Jul 19:26:24 19:30:54 27° 265° (W) 19:35:26 437.470
ISS 25 Jul 19:47:10 19:48:29 12° 130° (SE) 19:49:49 437.550
XW-2A 25 Jul 19:52:34 19:55:56 67° 259° (W) 19:59:19 145.665 - 145.685
YUBILEINY 25 Jul 19:56:09 20:04:49 59° 283° (WNW) 20:13:33 435.215
UWE-3 25 Jul 19:56:32 20:01:01 57° 74° (ENE) 20:05:24 435.000/436.395/437.385
Tancredo 1 25 Jul 19:58:16 20:01:02 41° 140° (SE) 20:03:51 437.200
AAUSAT CUBESAT 2 25 Jul 20:06:23 20:10:27 70° 76° (ENE) 20:14:34 437.432
ZACube-1 25 Jul 20:09:00 20:13:12 43° 72° (ENE) 20:17:19 437.345
STRAND 1 25 Jul 20:13:50 20:18:53 57° 101° (E) 20:23:53 437.568
AO-85 25 Jul 20:17:56 20:20:50 18° 43° (NE) 20:23:51 145.980
nSIGHT-1 25 Jul 20:26:53 20:29:46 30° 137° (SE) 20:32:39 .
Oscar 11 25 Jul 20:33:49 20:38:00 53° 74° (ENE) 20:42:12 .
HO-68 25 Jul 20:33:57 20:40:10 31° 265° (W) 20:46:26 435.675
CUBEBUG 2 25 Jul 20:36:44 20:40:57 33° 264° (W) 20:45:08 437.445
BEESAT 3 25 Jul 20:40:22 20:43:41 24° 46° (NE) 20:46:56 437.485
AO-73 25 Jul 20:48:31 20:52:57 79° 258° (WSW) 20:57:17 145.935
CUTE 1.7 + AOD 2 25 Jul 20:53:10 20:54:17 11° 271° (W) 20:55:24 437.475
RS-15 25 Jul 21:00:17 21:09:45 24° 1° (N) 21:19:01 29.354- 29.394
DELFI C3 25 Jul 21:02:51 21:06:09 26° 69° (ENE) 21:09:29 145.870
SEEDS 25 Jul 21:03:01 21:04:58 13° 270° (W) 21:06:57 437.485
EO-88 25 Jul 21:19:04 21:22:01 24° 69° (ENE) 21:24:57 145.990 - 145.960
ISS 25 Jul 21:21:17 21:24:31 79° 324° (NW) 21:27:47 437.550
BEESAT 2 25 Jul 21:21:53 21:25:11 23° 46° (NE) 21:28:27 435.950
Tancredo 1 25 Jul 21:33:59 21:36:32 26° 337° (NNW) 21:39:04 437.200
UWE-3 25 Jul 21:35:23 21:37:46 14° 269° (W) 21:40:08 435.000/436.395/437.385
ZACube-1 25 Jul 21:46:38 21:49:38 18° 267° (W) 21:52:36 437.345
FO-29 25 Jul 21:47:33 21:53:53 34° 93° (E) 21:59:32 435.910
STRAND 1 25 Jul 21:54:06 21:57:37 19° 298° (WNW) 22:01:06 437.568
AO-85 25 Jul 21:57:21 22:01:32 60° 240° (WSW) 22:06:00 145.980
TIGRISAT 25 Jul 21:58:43 22:01:21 16° 92° (E) 22:03:57 435.000
YUBILEINY 25 Jul 22:00:58 22:03:51 12° 306° (NW) 22:06:44 435.215
nSIGHT-1 25 Jul 22:03:07 22:06:07 35° 334° (NNW) 22:09:09 .
Oscar 11 25 Jul 22:12:18 22:14:27 14° 269° (W) 22:16:37 .
BEESAT 3 25 Jul 22:17:41 22:21:19 34° 244° (WSW) 22:24:54 437.485
PRISM 25 Jul 22:32:23 22:36:08 32° 97° (E) 22:39:53 437.425
DELFI C3 25 Jul 22:37:43 22:40:52 23° 265° (W) 22:44:04 145.870
UNISAT 6 25 Jul 22:49:59 22:54:17 64° 101° (ESE) 22:58:30 437.425
EO-88 25 Jul 22:52:46 22:55:37 21° 265° (W) 22:58:28 145.990 - 145.960
LO-87 25 Jul 22:53:22 22:56:50 43° 73° (ENE) 23:00:20 145.935 - 145.965
ISS 25 Jul 22:58:55 23:01:24 20° 345° (NNW) 23:03:54 437.550
BEESAT 2 25 Jul 22:59:16 23:03:02 37° 244° (WSW) 23:06:45 435.950
Tancredo 1 25 Jul 23:11:10 23:12:40 13° 357° (N) 23:14:10 437.200
SPROUT 25 Jul 23:15:37 23:17:48 14° 63° (ENE) 23:19:59 437.525
RS-15 25 Jul 23:15:48 23:27:03 39° 35° (NE) 23:37:46 29.354- 29.394
ESTCUBE 1 25 Jul 23:23:12 23:27:36 63° 74° (ENE) 23:32:03 437.505/2401.250
M-CUBED/EXP-1 PRIME 25 Jul 23:23:40 23:28:07 45° 104° (ESE) 23:32:35 437.505
AIST 2D 25 Jul 23:26:59 23:29:21 17° 93° (E) 23:31:43 435.315
FO-29 25 Jul 23:32:21 23:39:02 43° 294° (WNW) 23:44:59 435.910
TIGRISAT 25 Jul 23:34:10 23:38:17 45° 288° (WNW) 23:42:20 435.000
nSIGHT-1 25 Jul 23:41:09 23:43:13 16° 354° (N) 23:45:16 .
VELOX 1 26 Jul 00:05:13 00:09:19 39° 71° (ENE) 00:13:29 145.980
PRISM 26 Jul 00:08:00 00:11:14 22° 293° (WNW) 00:14:27 437.425
DX 1 26 Jul 00:09:43 00:12:08 15° 62° (ENE) 00:14:35 434.975-435.025
UNISAT 6 26 Jul 00:28:34 00:30:26 13° 298° (WNW) 00:32:17 437.425
LO-87 26 Jul 00:29:06 00:30:30 12° 269° (W) 00:31:53 145.935 - 145.965
DUCHIFAT 1 26 Jul 00:34:54 00:38:50 38° 98° (E) 00:42:43 145.980
ISS 26 Jul 00:36:42 00:38:47 16° 5° (N) 00:40:51 437.550
POLYITAN 1 26 Jul 00:38:41 00:42:49 54° 100° (E) 00:46:54 437.675
Tancredo 1 26 Jul 00:46:42 00:48:54 19° 17° (NNE) 00:51:07 437.200
SPROUT 26 Jul 00:48:58 00:53:12 59° 260° (W) 00:57:28 437.525
UKube-1 26 Jul 00:49:08 00:52:38 25° 67° (ENE) 00:56:09 .
QB50P2 26 Jul 00:51:44 00:55:59 85° 105° (ESE) 01:00:10 145.880/145.840
O/OREOS (USA 219) 26 Jul 00:54:01 00:58:24 50° 64° (ENE) 01:02:46 437.305
M-CUBED/EXP-1 PRIME 26 Jul 00:58:43 01:02:13 22° 299° (WNW) 01:05:44 437.505
AIST 2D 26 Jul 00:59:35 01:02:35 27° 289° (WNW) 01:05:34 435.315
BUGSAT 1 26 Jul 01:00:33 01:03:38 20° 94° (E) 01:06:42 437.445
NANOSAT C BR1 26 Jul 01:02:51 01:07:03 88° 293° (WNW) 01:11:14 145.865
ESTCUBE 1 26 Jul 01:02:59 01:04:49 12° 270° (W) 01:06:40 437.505/2401.250
EO-79 26 Jul 01:03:27 01:07:41 78° 284° (WNW) 01:11:51 145.935-145.965
nSIGHT-1 26 Jul 01:18:06 01:20:31 19° 14° (NNE) 01:22:56 .
50 SAT 26 Jul 01:20:40 01:24:02 62° 259° (W) 01:27:26 437.505
RS-15 26 Jul 01:28:43 01:40:49 79° 242° (WSW) 01:52:14 29.354- 29.394
VELOX 1 26 Jul 01:42:43 01:45:55 19° 267° (W) 01:49:08 145.980
DX 1 26 Jul 01:43:33 01:47:50 56° 259° (W) 01:52:10 434.975-435.025
MOZHAYETS 4 26 Jul 02:02:01 02:03:38 12° 61° (ENE) 02:05:14
DUCHIFAT 1 26 Jul 02:11:18 02:14:13 19° 295° (WNW) 02:17:07 145.980
Oscar 19 26 Jul 02:12:46 02:17:49 51° 100° (E) 02:22:50 437.125/150
ISS 26 Jul 02:12:58 02:15:58 33° 25° (NNE) 02:18:58 437.550
POLYITAN 1 26 Jul 02:15:56 02:18:08 14° 297° (WNW) 02:20:20 437.675
Tancredo 1 26 Jul 02:21:40 02:24:37 87° 225° (SW) 02:27:35 437.200
UKube-1 26 Jul 02:24:43 02:28:31 30° 263° (W) 02:32:21 .
O/OREOS (USA 219) 26 Jul 02:34:40 02:37:21 16° 260° (W) 02:40:02 437.305
BUGSAT 1 26 Jul 02:35:24 02:39:03 31° 291° (WNW) 02:42:38 437.445
BEESAT 26 Jul 02:44:00 02:48:31 43° 70° (ENE) 02:53:02 436.000
Gurwin Techsat 1B 26 Jul 02:46:45 02:52:04 68° 102° (ESE) 02:57:21 435.225
nSIGHT-1 26 Jul 02:54:08 02:57:21 71° 32° (NNE) 03:00:34 .
ITUPSAT 1 26 Jul 02:57:44 03:02:26 59° 72° (ENE) 03:07:08 437.325
MOZHAYETS 4 26 Jul 03:35:33 03:40:07 79° 256° (WSW) 03:44:43
RS-15 26 Jul 03:43:50 03:51:06 19° 263° (W) 03:58:11 29.354- 29.394
PCSat 26 Jul 03:47:09 03:49:37 13° 103° (ESE) 03:52:05 145.827
ISS 26 Jul 03:49:26 03:52:26 34° 222° (SW) 03:55:26 437.550
Oscar 19 26 Jul 03:52:56 03:56:45 21° 297° (WNW) 04:00:34 437.125/150
ITAMSAT 1 26 Jul 04:06:37 04:11:35 44° 99° (E) 04:16:31 435.822/435.867
KKS-1 26 Jul 04:09:39 04:13:23 27° 67° (ENE) 04:17:08 437.445
YUBILEINY 26 Jul 04:11:13 04:15:53 15° 57° (ENE) 04:20:31 435.215
CUBESAT XI-V 26 Jul 04:13:06 04:17:30 49° 72° (ENE) 04:21:58 437.345
AO-7 26 Jul 04:21:35 04:29:51 59° 104° (ESE) 04:38:01 .
BEESAT 26 Jul 04:22:57 04:26:28 20° 266° (W) 04:30:00 436.000
Gurwin Techsat 1B 26 Jul 04:28:03 04:31:26 17° 299° (WNW) 04:34:49 435.225
nSIGHT-1 26 Jul 04:31:43 04:33:22 13° 229° (SW) 04:35:02 .
STARS 26 Jul 04:36:42 04:40:04 22° 66° (ENE) 04:43:29 437.465
ITUPSAT 1 26 Jul 04:37:52 04:40:37 15° 269° (W) 04:43:22 437.325
SO-50 26 Jul 05:03:42 05:04:18 10° 107° (ESE) 05:04:54 436.795
PCSat 26 Jul 05:26:49 05:32:14 84° 301° (WNW) 05:37:42 145.827
KKS-1 26 Jul 05:45:53 05:49:49 30° 263° (W) 05:53:48 437.445
ITAMSAT 1 26 Jul 05:46:39 05:50:47 24° 296° (WNW) 05:54:54 435.822/435.867
CUBESAT XI-V 26 Jul 05:52:16 05:55:10 16° 269° (W) 05:58:04 437.345
DOVE 4 26 Jul 05:53:44 05:58:35 36° 95° (E) 06:03:14 437.250
STRAND 1 26 Jul 05:54:59 05:56:44 12° 58° (ENE) 05:58:28 437.568
XW-2B 26 Jul 05:57:27 05:57:40 10° 90° (E) 05:57:52 145.730 - 145.750
CUTE-I 26 Jul 06:03:39 06:06:38 15° 90° (E) 06:09:36 437.470
YUBILEINY 26 Jul 06:05:40 06:14:28 73° 80° (E) 06:23:08 435.215
STARS 26 Jul 06:12:05 06:16:11 37° 262° (W) 06:20:19 437.465
XW-2C 26 Jul 06:12:47 06:15:16 17° 93° (E) 06:17:44 145.795 - 145.815
AO-7 26 Jul 06:14:56 06:22:10 34° 303° (WNW) 06:29:23 .
NUDT-PHONESAT 26 Jul 06:16:23 06:18:09 13° 92° (E) 06:19:55 437.300
KAITUO 1B 26 Jul 06:31:36 06:34:29 21° 94° (E) 06:37:22 145.475/437.950
LilacSat-2 26 Jul 06:36:45 06:40:14 34° 97° (E) 06:43:42 437.200
SO-50 26 Jul 06:39:30 06:44:02 86° 299° (WNW) 06:48:36 436.795
XW-2F 26 Jul 06:48:47 06:52:22 42° 99° (E) 06:55:57 145.980 - 146.000
CUTE 1.7 + AOD 2 26 Jul 07:00:53 07:01:45 11° 89° (E) 07:02:37 437.475
PCSat 26 Jul 07:13:07 07:16:28 16° 320° (NW) 07:19:51 145.827
XW-2D 26 Jul 07:18:20 07:22:05 71° 284° (WNW) 07:25:50 145.860 - 145.880
XW-2B 26 Jul 07:28:29 07:32:11 55° 286° (WNW) 07:35:52 145.730 - 145.750
STRAND 1 26 Jul 07:29:56 07:35:05 84° 73° (ENE) 07:40:15 437.568
DOVE 4 26 Jul 07:31:36 07:36:05 29° 293° (WNW) 07:40:26 437.250
CUTE-I 26 Jul 07:41:51 07:47:12 71° 286° (WNW) 07:52:30 437.470
XW-2C 26 Jul 07:46:09 07:49:33 33° 289° (WNW) 07:52:56 145.795 - 145.815
NUDT-PHONESAT 26 Jul 07:48:46 07:52:14 40° 287° (WNW) 07:55:42 437.300
AAUSAT CUBESAT 2 26 Jul 07:50:29 07:51:25 11° 89° (E) 07:52:21 437.432
HO-68 26 Jul 07:59:50 08:06:47 52° 101° (E) 08:13:42 435.675
FO-29 26 Jul 07:59:54 08:05:22 21° 56° (ENE) 08:10:52 435.910
YUBILEINY 26 Jul 08:03:49 08:10:20 24° 280° (W) 08:16:49 435.215
KAITUO 1B 26 Jul 08:05:20 08:08:26 25° 290° (WNW) 08:11:34 145.475/437.950
LilacSat-2 26 Jul 08:11:46 08:14:15 17° 293° (WNW) 08:16:44 437.200
SO-50 26 Jul 08:22:42 08:25:12 14° 323° (NW) 08:27:41 436.795
XW-2F 26 Jul 08:24:11 08:26:08 14° 295° (WNW) 08:28:05 145.980 - 146.000
CUBEBUG 2 26 Jul 08:26:46 08:30:53 49° 99° (E) 08:34:55 437.445
CUTE 1.7 + AOD 2 26 Jul 08:33:47 08:38:01 67° 285° (WNW) 08:42:14 437.475
AO-73 26 Jul 08:36:56 08:39:45 18° 92° (E) 08:42:34 145.935
SEEDS 26 Jul 08:43:27 08:47:42 83° 286° (WNW) 08:51:56 437.485
XW-2A 26 Jul 08:46:23 08:49:42 66° 285° (WNW) 08:53:00 145.665 - 145.685
TIGRISAT 26 Jul 08:57:41 09:00:40 17° 64° (ENE) 09:03:37 435.000
STRAND 1 26 Jul 09:13:16 09:14:53 11° 272° (W) 09:16:31 437.568
UWE-3 26 Jul 09:22:01 09:26:11 67° 285° (WNW) 09:30:16 435.000/436.395/437.385
PRISM 26 Jul 09:22:07 09:25:28 24° 67° (ENE) 09:28:49 437.425
AAUSAT CUBESAT 2 26 Jul 09:23:08 09:27:16 64° 285° (WNW) 09:31:24 437.432
CUTE-I 26 Jul 09:25:42 09:26:15 10° 305° (NW) 09:26:48 437.470
ZACube-1 26 Jul 09:32:39 09:36:49 87° 103° (ESE) 09:40:57 437.345
FO-29 26 Jul 09:41:39 09:49:20 89° 78° (ENE) 09:57:16 435.910
HO-68 26 Jul 09:48:03 09:54:12 33° 299° (WNW) 10:00:22 435.675
UNISAT 6 26 Jul 09:48:29 09:53:03 59° 74° (ENE) 09:57:33 437.425
Oscar 11 26 Jul 09:56:18 10:00:36 77° 285° (WNW) 10:04:55 .
CUBEBUG 2 26 Jul 10:04:39 10:07:05 15° 296° (WNW) 10:09:28 437.445
M-CUBED/EXP-1 PRIME 26 Jul 10:09:58 10:13:33 53° 68° (ENE) 10:17:27 437.505
AO-73 26 Jul 10:12:20 10:16:09 37° 289° (WNW) 10:19:56 145.935
DELFI C3 26 Jul 10:13:14 10:17:02 39° 98° (E) 10:20:48 145.870
NO-84 26 Jul 10:18:42 10:21:05 22° 129° (SE) 10:23:36 435.350 FM
EO-88 26 Jul 10:20:19 10:23:29 28° 96° (E) 10:26:39 145.990 - 145.960
TIGRISAT 26 Jul 10:32:25 10:36:57 52° 260° (W) 10:41:25 435.000
PRISM 26 Jul 10:57:07 11:00:37 27° 264° (W) 11:04:10 437.425
ESTCUBE 1 26 Jul 11:16:51 11:18:58 13° 90° (E) 11:21:04 437.505/2401.250
DUCHIFAT 1 26 Jul 11:26:54 11:30:36 30° 69° (ENE) 11:34:19 145.980
UNISAT 6 26 Jul 11:27:40 11:30:05 14° 269° (W) 11:32:31 437.425
FO-29 26 Jul 11:30:06 11:35:12 19° 273° (W) 11:40:27 435.910
POLYITAN 1 26 Jul 11:31:15 11:35:16 42° 72° (ENE) 11:39:18 437.675
AIST 2D 26 Jul 11:33:24 11:36:52 76° 259° (W) 11:40:21 435.315
QB50P2 26 Jul 11:44:09 11:48:23 65° 75° (ENE) 11:52:37 145.880/145.840
M-CUBED/EXP-1 PRIME 26 Jul 11:47:15 11:48:25 11° 266° (W) 11:49:37 437.505
DELFI C3 26 Jul 11:48:54 11:51:28 17° 294° (WNW) 11:54:03 145.870
BUGSAT 1 26 Jul 11:50:53 11:53:39 17° 65° (ENE) 11:56:24 437.445
LO-87 26 Jul 11:53:00 11:56:32 51° 100° (E) 12:00:01 145.935 - 145.965
EO-88 26 Jul 11:54:23 11:56:58 19° 292° (WNW) 11:59:33 145.990 - 145.960
NANOSAT C BR1 26 Jul 11:54:42 11:58:56 70° 75° (ENE) 12:03:10 145.865
NO-84 26 Jul 11:55:32 11:58:22 33° 328° (NNW) 12:01:24 435.350 FM
EO-79 26 Jul 11:55:37 11:59:53 80° 74° (ENE) 12:04:09 145.935-145.965
Oscar 19 26 Jul 11:55:38 11:56:36 11° 57° (ENE) 11:57:35 437.125/150
BEESAT 3 26 Jul 12:07:16 12:10:48 31° 115° (ESE) 12:14:24 437.485
